User: anonymous   Login
Location: Meriden
(44.0740°N, 93.3870°W)
Time: 22:31:23
(UTC-06:00)
Language:

Hamsat - Orbit

View from above orbital plane
View from above orbital plane
View from above satellite
View from above satellite

Ground track
Ground track

The orbit data is extracted from the following two-line orbital elements,

1 28650U 05017B   18021.86118595  .00000275  00000-0  34998-4 0  9990
2 28650  97.6802 354.1587 0024648 124.7933 235.5608 14.88851156688706
Epoch (UTC): 21 January 2018 20:40:06
Eccentricity: 0.0024648
inclination: 97.6802°
perigee height: 584 km
apogee height: 619 km
right ascension of ascending node: 354.1587°
argument of perigee: 124.7933°
revolutions per day: 14.88851156
mean anomaly at epoch: 235.5608°
orbit number at epoch: 68870

The dashed part of the orbit path shows where the satellite is in the earth's shadow,  

DLR